Location: B
(0.0000°N, 0.0000°E)
Time: 04:15:13
(UTC+02:00)

Amateur Radio Satellites - All Passes

Search period start: 23 October 2014 03:45
Search period end: 24 October 2014 03:45
Location: B, 0.0000°N, 0.0000°E

Satellite Date Start Highest point End Downlink Frequencies (MHz)
Time Altitude Azimuth
Sapphire 23 Oct 03:47:48 03:52:30 31° 109° (ESE) 03:57:11 437.095 MHz 1200 baud AX-25 AFSK
UOSAT-12 23 Oct 04:03:43 04:06:26 16° 248° (WSW) 04:09:07 437.025 FM, 437.400 FM
PCSat 23 Oct 04:09:57 04:15:17 64° 109° (ESE) 04:20:36 145.825 MHz
Oscar 16 23 Oct 04:15:08 04:18:16 17° 283° (WNW) 04:21:25 437.025 USB, Beacon 2401.1428
AO-Echo 23 Oct 04:28:05 04:32:28 27° 283° (WNW) 04:36:50 ?
Uribyol 2 23 Oct 04:29:06 04:33:41 33° 283° (WNW) 04:38:18 436.500 FM
ITAMSAT 1 23 Oct 04:34:35 04:39:07 31° 283° (WNW) 04:43:40 435.822 SSB
Gurwin Techsat 1B 23 Oct 04:40:04 04:45:18 63° 282° (WNW) 04:50:33 435.225 FM
PANSAT 23 Oct 04:50:35 04:54:15 42° 150° (SSE) 04:57:54 not established
TMSAT-1 23 Oct 04:52:50 04:58:04 65° 282° (WNW) 05:03:19 436.925 FM
Sapphire 23 Oct 05:32:12 05:35:38 17° 290° (WNW) 05:39:05 437.095 MHz 1200 baud AX-25 AFSK
AO-7 23 Oct 05:53:34 06:01:54 80° 106° (ESE) 06:10:16 29.400 - 29.500 MHz
Uosat F 23 Oct 06:10:01 06:15:03 84° 283° (WNW) 06:20:05 435.120 FM
JAS-2 23 Oct 06:10:03 06:15:49 23° 102° (ESE) 06:21:18 435.800 - 435.900 CW/SSB, 435.910 FM
OPAL 23 Oct 06:27:07 06:32:04 44° 76° (ENE) 06:36:57 ?
PANSAT 23 Oct 06:31:09 06:34:20 25° 331° (NNW) 06:37:32 not established
Hamsat 23 Oct 07:13:08 07:17:14 51° 101° (ESE) 07:21:24 145.90 MHz
Saudisat 1A 23 Oct 07:48:09 07:52:29 68° 112° (ESE) 07:56:49 436.775 MHz
AO-7 23 Oct 07:51:56 07:54:13 11° 287° (WNW) 07:56:30 29.400 - 29.500 MHz
JAS-2 23 Oct 07:53:15 08:00:32 44° 284° (WNW) 08:07:26 435.800 - 435.900 CW/SSB, 435.910 FM
STRAND 1 23 Oct 08:08:05 08:12:57 45° 77° (ENE) 08:17:48 ?
OPAL 23 Oct 08:09:01 08:10:37 11° 255° (WSW) 08:12:12 ?
SO-67 23 Oct 08:24:03 08:27:14 35° 101° (E) 08:30:25 435.3500 MHz FM
RS-15 23 Oct 09:51:17 10:02:20 50° 70° (ENE) 10:13:46 29.354 - 29.394 USB, Beacon 29.352 USB
STRAND 1 23 Oct 09:51:37 09:51:50 10° 257° (WSW) 09:52:04 ?
HO-68 23 Oct 10:46:33 10:53:44 84° 284° (WNW) 11:00:56 435.675 MHz FM
Oscar 11 23 Oct 10:56:47 11:00:40 34° 102° (ESE) 11:04:35 145.825 FM, Beacon 2401.500 USB
ZACube-1 23 Oct 11:40:11 11:44:08 45° 102° (ESE) 11:48:06 437.345 MHz
MaSat-1 23 Oct 11:48:55 11:50:22 15° 73° (ENE) 11:51:49 437.345 MHz
UKube-1 23 Oct 11:49:22 11:53:18 34° 282° (WNW) 11:57:15 145.840 MHz, 145.915 MHz
ISS 23 Oct 12:01:09 12:04:28 76° 126° (SE) 12:07:46 145.800 FM
RS-15 23 Oct 12:04:40 12:14:24 31° 248° (WSW) 12:24:31 29.354 - 29.394 USB, Beacon 29.352 USB
AO-40 23 Oct 12:10:12 12:17:16 70° 8° (N) 12:23:27 Beacon 2401.320
FUNcube-1 23 Oct 12:25:33 12:29:20 35° 282° (WNW) 12:33:09 145.950 - 145.970 MHz USB
KITSAT 1 23 Oct 12:35:08 12:43:14 85° 110° (ESE) 12:51:19 435.175 FM
SO-50 23 Oct 12:58:25 13:02:43 55° 112° (ESE) 13:07:02 436.795 FM
JAS-1B 23 Oct 14:06:56 14:09:39 13° 80° (E) 14:12:14 435.800 - 435.900 CW/SSB
Oscar 19 23 Oct 14:24:00 14:27:49 21° 77° (ENE) 14:31:37 437.125 CW, 437.150 USB
UOSAT-12 23 Oct 14:32:18 14:36:31 41° 112° (ESE) 14:40:49 437.025 FM, 437.400 FM
PCSat 23 Oct 15:06:03 15:08:24 13° 70° (ENE) 15:10:45 145.825 MHz
Oscar 16 23 Oct 15:07:59 15:13:11 78° 77° (ENE) 15:18:21 437.025 USB, Beacon 2401.1428
AO-Echo 23 Oct 15:18:36 15:23:00 40° 78° (ENE) 15:27:28 ?
Uribyol 2 23 Oct 15:24:36 15:29:27 40° 77° (ENE) 15:34:16 436.500 FM
ITAMSAT 1 23 Oct 15:30:07 15:35:01 42° 77° (ENE) 15:39:53 435.822 SSB
Gurwin Techsat 1B 23 Oct 15:40:00 15:44:13 24° 77° (ENE) 15:48:24 435.225 FM
TMSAT-1 23 Oct 15:52:31 15:56:38 23° 77° (ENE) 16:00:43 436.925 FM
JAS-1B 23 Oct 15:53:10 16:00:22 53° 255° (WSW) 16:06:27 435.800 - 435.900 CW/SSB
Oscar 19 23 Oct 16:02:47 16:06:53 24° 257° (WSW) 16:10:58 437.125 CW, 437.150 USB
AO-27 23 Oct 16:15:04 16:20:06 52° 257° (WSW) 16:25:08 436.795 MHz FM
Sapphire 23 Oct 16:23:26 16:28:50 84° 251° (WSW) 16:34:15 437.095 MHz 1200 baud AX-25 AFSK
AO-7 23 Oct 16:31:44 16:36:03 15° 73° (ENE) 16:40:20 29.400 - 29.500 MHz
PANSAT 23 Oct 16:37:47 16:41:27 44° 30° (NNE) 16:45:09 not established
PCSat 23 Oct 16:46:32 16:51:33 40° 251° (WSW) 16:56:35 145.825 MHz
Uosat F 23 Oct 17:04:02 17:06:19 13° 77° (ENE) 17:08:35 435.120 FM
Uribyol 2 23 Oct 17:06:34 17:08:37 12° 257° (WSW) 17:10:41 436.500 FM
ITAMSAT 1 23 Oct 17:12:41 17:14:12 11° 257° (WSW) 17:15:44 435.822 SSB
Gurwin Techsat 1B 23 Oct 17:19:56 17:23:54 22° 257° (WSW) 17:27:51 435.225 FM
TMSAT-1 23 Oct 17:32:13 17:36:16 23° 257° (WSW) 17:40:19 436.925 FM
PANSAT 23 Oct 18:18:23 18:21:33 24° 209° (SSW) 18:24:44 not established
AO-7 23 Oct 18:20:13 18:28:25 66° 254° (WSW) 18:36:35 29.400 - 29.500 MHz
Uosat F 23 Oct 18:40:18 18:44:49 35° 257° (WSW) 18:49:20 435.120 FM
OPAL 23 Oct 18:58:44 19:03:39 77° 284° (WNW) 19:08:37 ?
Hamsat 23 Oct 19:20:20 19:24:36 67° 79° (ENE) 19:28:48 145.90 MHz
JAS-2 23 Oct 19:26:44 19:31:57 72° 258° (WSW) 19:37:35 435.800 - 435.900 CW/SSB, 435.910 FM
Saudisat 1A 23 Oct 19:54:06 19:58:29 76° 248° (WSW) 20:02:53 436.775 MHz
SO-67 23 Oct 20:08:56 20:11:27 19° 79° (E) 20:13:58 435.3500 MHz FM
STRAND 1 23 Oct 20:40:35 20:45:41 71° 283° (WNW) 20:50:47 ?
RS-15 23 Oct 21:34:53 21:45:24 41° 112° (ESE) 21:55:26 29.354 - 29.394 USB, Beacon 29.352 USB
UKube-1 23 Oct 22:25:01 22:27:05 13° 78° (ENE) 22:29:09 145.840 MHz, 145.915 MHz
HO-68 23 Oct 22:38:11 22:45:20 83° 76° (ENE) 22:52:29 435.675 MHz FM
KITSAT 1 23 Oct 22:53:36 22:56:00 11° 68° (ENE) 22:58:24 435.175 FM
FUNcube-1 23 Oct 23:01:33 23:03:53 14° 78° (ENE) 23:06:12 145.950 - 145.970 MHz USB
Oscar 11 23 Oct 23:05:44 23:09:56 47° 78° (ENE) 23:14:05 145.825 FM, Beacon 2401.500 USB
MaSat-1 23 Oct 23:28:28 23:32:03 23° 108° (ESE) 23:35:34 437.345 MHz
ISS 23 Oct 23:36:43 23:39:54 45° 55° (NE) 23:43:06 145.800 FM
RS-15 23 Oct 23:47:29 23:57:17 35° 291° (WNW) 00:06:51 29.354 - 29.394 USB, Beacon 29.352 USB
ZACube-1 23 Oct 23:50:20 23:54:56 69° 78° (ENE) 23:59:31 437.345 MHz
UKube-1 23 Oct 23:59:27 00:03:00 25° 258° (WSW) 00:06:34 145.840 MHz, 145.915 MHz
FUNcube-1 24 Oct 00:36:02 00:39:58 28° 258° (WSW) 00:43:54 145.950 - 145.970 MHz USB
KITSAT 1 24 Oct 00:43:09 00:51:10 77° 250° (WSW) 00:59:14 435.175 FM
MaSat-1 24 Oct 01:04:44 01:07:29 16° 286° (WNW) 01:10:11 437.345 MHz
SO-50 24 Oct 01:11:12 01:16:04 75° 248° (WSW) 01:20:54 436.795 FM
Oscar 16 24 Oct 02:06:08 02:07:55 12° 103° (ESE) 02:09:43 437.025 USB, Beacon 2401.1428
JAS-1B 24 Oct 02:10:35 02:16:41 23° 108° (ESE) 02:23:22 435.800 - 435.900 CW/SSB
UOSAT-12 24 Oct 02:42:24 02:46:58 75° 68° (ENE) 02:51:26 437.025 FM, 437.400 FM
Oscar 19 24 Oct 02:56:31 03:01:29 53° 102° (ESE) 03:06:29 437.125 CW, 437.150 USB
AO-27 24 Oct 03:11:50 03:16:06 26° 103° (ESE) 03:20:21 436.795 MHz FM
Sapphire 24 Oct 03:18:11 03:22:04 20° 110° (ESE) 03:25:57 437.095 MHz 1200 baud AX-25 AFSK
